[[{"header":{"parameterUnit":"m.s-1","parameterCategory":1,"la1":30.2991,"la2":30.254,"lo1":-89.0895,"lo2":-89.0444,"dy":0.0017,"dx":0.0017,"nx":28,"ny":28,"refTime":"2023-11-05T09:00:00:Z","depth":0,"parameterNumber":2,"parameterNumberName":"U-component_of_WINDS"},"data":[0,0,0,0,0,0,0,0,0,0,0,0,0,0,0,0,0,0,0,0,0,0,0,0,0,0,0,0,0,0,0,0,0,0,0,0,0,0,0,0,0,0,0,0,0,0,0,0,0,0,0,0,0,0,0,0,0,0,1.1375,1.1375,0,1.1383,1.1383,1.1383,1.1325,1.1323,1.1321,1.132,1.133,1.1332,1.1334,0,0,0,0,0,0,0,0,0,0,0,0,0,1.1311,1.1312,1.1375,1.1375,1.1375,1.1383,1.1383,1.1383,1.1325,1.1323,1.1321,1.1319,1.133,1.1332,1.1334,0,0,0,0,0,0,0,0,0,0,0,0,0,1.1331,1.1313,1.1375,1.1347,1.1344,1.1383,1.1383,1.1383,1.1325,1.1323,1.132,1.1318,1.1329,1.1332,1.1334,1.14,0,0,1.1343,1.1344,0,0,0,0,0,0,0,0,1.133,1.1333,1.1351,1.1349,1.1346,1.135,1.1364,1.1389,1.1326,1.1333,1.132,1.1317,1.1339,1.1341,1.1348,1.1401,1.1401,1.1343,1.1345,1.1346,1.1346,0,0,0,0,0,0,0,1.1329,1.1333,1.1378,1.1351,1.1348,1.1334,1.1335,1.1369,1.135,1.1332,1.1328,1.1329,1.1337,1.1345,1.1348,1.1402,1.1343,1.1345,1.1347,1.1348,1.1509,1.1511,0,0,0,0,0,0,1.1331,1.1332,1.1378,1.1378,1.1332,1.1338,1.1338,1.1351,1.1349,1.1346,1.1331,1.1326,1.1342,1.1344,1.1348,1.1424,1.1346,1.1348,1.135,1.1506,1.1509,1.1512,0,0,0,0,0,0,1.1329,1.1335,1.1377,1.1354,1.1358,1.1341,1.1357,1.1353,1.1361,1.1349,1.1345,1.1343,1.134,1.1344,1.1387,1.1424,1.1349,1.1352,1.1503,1.1507,1.1511,1.1579,0,0,0,0,0,0,1.1328,1.1335,1.136,1.1355,1.136,1.1417,1.1359,1.1355,1.1365,1.1359,1.1358,1.1356,1.1338,1.1384,1.139,1.1426,1.1354,1.15,1.1505,1.1509,1.1573,1.1585,1.1594,0,0,0,0,0,1.1326,1.1379,1.1361,1.1367,1.139,1.1419,1.1422,1.1399,1.1368,1.1393,1.1385,1.1356,1.1419,1.1389,1.1395,1.1433,1.1497,1.1503,1.1509,1.1569,1.1582,1.1594,0,0,0,0,0,0,1.139,1.1378,1.1358,1.1411,1.1416,1.1409,1.1439,1.1415,1.1429,1.1423,1.1396,1.1396,1.1444,1.1443,1.1409,1.1497,1.1453,1.146,1.1496,1.1509,1.1519,1.1518,1.1356,0,0,0,0,0,1.141,1.1434,1.1423,1.1471,1.1474,1.1457,1.1468,1.1451,1.1455,1.1457,1.1453,1.1459,1.148,1.1494,1.1513,1.1573,1.1572,1.1602,1.1613,1.1621,1.1628,1.1659,1.1673,1.1532,1.1532,1.1531,0,0,1.1452,1.1449,1.1466,1.1483,1.1485,1.1511,1.1459,1.1488,1.1507,1.1462,1.1502,1.1499,1.1504,1.1556,1.1579,1.1557,1.1667,1.1629,1.1636,1.1638,1.1667,1.168,1.1692,1.1536,1.1535,1.1534,0,0,1.1542,1.1542,1.1582,1.1584,1.1587,1.1575,1.1585,1.1581,1.1577,1.1617,1.1583,1.1606,1.1643,1.1647,1.1655,1.1746,1.1719,1.1753,1.1808,1.1839,1.185,1.186,1.1892,1.1904,1.176,1.176,1.176,0,1.1594,1.1631,1.1606,1.1637,1.1646,1.1605,1.1645,1.165,1.1659,1.1666,1.1641,1.1686,1.1687,1.1739,1.1761,1.1768,1.1778,1.1753,1.185,1.186,1.1868,1.1899,1.1911,1.1764,1.1763,1.1763,1.1763,0,1.1695,1.1721,1.1753,1.1762,1.1775,1.1811,1.1791,1.1807,1.1788,1.1779,1.182,1.1819,1.1836,1.1847,1.183,1.1897,1.1883,1.1855,1.181,1.1886,1.1914,1.1926,1.177,1.1768,1.1767,1.1766,0,0,1.1826,1.182,1.1832,1.1835,1.1835,1.1855,1.189,1.1906,1.192,1.1928,1.1956,1.1988,1.1961,1.1969,1.1952,1.1979,1.2051,1.1947,1.1946,1.1966,1.2124,1.2146,1.216,1.2033,1.2035,1.2037,1.2124,0,1.1913,1.197,1.1948,1.2007,1.2031,1.1992,1.2022,1.2026,1.2018,1.2037,1.2029,1.2051,1.2015,1.2019,1.2044,1.2037,1.2082,1.203,1.2059,1.2061,1.2059,1.2174,1.2197,1.2279,1.2135,1.2137,1.2138,0,1.2022,1.2034,1.2095,1.2091,1.21,1.2127,1.214,1.2159,1.2162,1.2154,1.2164,1.214,1.2174,1.2129,1.2175,1.214,1.2151,1.2149,1.2151,1.2153,1.2104,1.2179,1.2305,1.2317,1.2155,1.2154,1.2152,0,1.2111,1.2142,1.2182,1.2186,1.2182,1.2202,1.2202,1.2203,1.2214,1.2225,1.2232,1.2248,1.2257,1.227,1.2251,1.222,1.23,1.2254,1.2294,1.2295,1.2313,1.2312,1.2442,1.232,1.232,1.232,1.232,0,1.2211,1.225,1.2222,1.2247,1.2289,1.2264,1.2307,1.2302,1.2303,1.2326,1.2295,1.2317,1.2292,1.2312,1.2298,1.2338,1.2343,1.2338,1.2333,1.234,1.2341,1.2347,1.234,1.2323,1.2322,1.2322,1.2321,0,1.2316,1.2299,1.2341,1.2334,1.2333,1.2364,1.2358,1.2381,1.2371,1.2401,1.2407,1.2391,1.2414,1.2396,1.2419,1.2409,1.2462,1.245,1.2461,1.2457,1.2499,1.2495,1.2636,1.2654,1.2522,1.2523,1.2524,0,1.2381,1.241,1.2405,1.2418,1.2419,1.2441,1.2452,1.2428,1.2441,1.2447,1.2469,1.2489,1.2503,1.2541,1.2532,1.2549,1.2537,1.2585,1.2539,1.2545,1.2537,1.2535,1.2538,1.2595,1.2596,1.2598,1.2599,0,1.2497,1.2487,1.2503,1.2517,1.2531,1.2541,1.2548,1.2561,1.2536,1.2552,1.2575,1.2586,1.2608,1.2628,1.2642,1.2642,1.2617,1.2613,1.2623,1.2631,1.2635,1.2633,1.2486,1.261,1.2609,1.2608,1.2607,1.2607,1.2584,1.2607,1.2608,1.2627,1.263,1.2637,1.2658,1.265,1.2668,1.2684,1.2669,1.2696,1.2699,1.2714,1.2717,1.2738,1.2718,1.2733,1.2737,1.2741,1.2746,1.2632,1.2741,1.274,1.274,1.274,1.2739,0,1.2697,1.2696,1.2714,1.2724,1.274,1.2714,1.2721,1.2735,1.2759,1.2763,1.2778,1.2804,1.2823,1.2815,1.2832,1.285,1.2839,1.2855,1.2853,1.2854,1.2764,1.2753,1.2864,1.2864,1.2864,1.2864,1.2864,1.2864,1.2758,1.2797,1.2787,1.2827,1.2825,1.285,1.2856,1.2863,1.2866,1.2896,1.2911,1.2906,1.2905,1.2922,1.2938,1.2935,1.2943,1.2964,1.2957,1.2872,1.286,1.2848,1.2838,1.2966,1.2966,1.3045,1.3046,1.3046]},{"header":{"parameterUnit":"m.s-1","parameterCategory":1,"la1":30.2991,"la2":30.254,"lo1":-89.0895,"lo2":-89.0444,"dy":0.0017,"dx":0.0017,"nx":28,"ny":28,"refTime":"2023-11-05T09:00:00:Z","depth":0,"parameterNumber":3,"parameterNumberName":"V-component_of_WINDS"},"data":[0,0,0,0,0,0,0,0,0,0,0,0,0,0,0,0,0,0,0,0,0,0,0,0,0,0,0,0,0,0,0,0,0,0,0,0,0,0,0,0,0,0,0,0,0,0,0,0,0,0,0,0,0,0,0,0,0,0,2.3875,2.3874,0,2.3821,2.382,2.382,2.3704,2.3702,2.3699,2.3697,2.3645,2.3645,2.3646,0,0,0,0,0,0,0,0,0,0,0,0,0,2.3881,2.3881,2.3875,2.3874,2.3873,2.3821,2.382,2.382,2.3704,2.3701,2.3699,2.3696,2.3644,2.3645,2.3646,0,0,0,0,0,0,0,0,0,0,0,0,0,2.3858,2.3881,2.3875,2.3809,2.3803,2.3821,2.382,2.3819,2.3705,2.3701,2.3698,2.3695,2.3644,2.3645,2.3646,2.3725,0,0,2.365,2.3651,0,0,0,0,0,0,0,0,2.3859,2.3858,2.382,2.3814,2.3807,2.3765,2.3803,2.3788,2.3706,2.3742,2.3697,2.3693,2.3688,2.3685,2.3683,2.3722,2.372,2.365,2.3651,2.3652,2.3652,0,0,0,0,0,0,0,2.3861,2.3859,2.3853,2.3819,2.3811,2.3784,2.3777,2.38,2.3736,2.3739,2.373,2.3725,2.3684,2.3682,2.3681,2.3719,2.365,2.3651,2.3652,2.3653,2.3821,2.3825,0,0,0,0,0,0,2.3872,2.3861,2.3855,2.3852,2.3825,2.3787,2.3779,2.3782,2.3735,2.3724,2.3728,2.372,2.3682,2.368,2.3679,2.3768,2.3651,2.3653,2.3653,2.3818,2.3822,2.3826,0,0,0,0,0,0,2.3872,2.3872,2.3857,2.3854,2.385,2.379,2.3795,2.3783,2.3781,2.3727,2.3715,2.3738,2.3679,2.3677,2.3714,2.3764,2.3653,2.3654,2.3813,2.3819,2.3824,2.3947,0,0,0,0,0,0,2.3873,2.3873,2.3901,2.3856,2.3851,2.3893,2.3798,2.3785,2.3783,2.3772,2.3733,2.3724,2.3676,2.3713,2.3716,2.3764,2.3655,2.3809,2.3816,2.3823,2.3938,2.3956,2.3972,0,0,0,0,0,2.3873,2.3938,2.3903,2.3903,2.3885,2.3896,2.3893,2.3837,2.3788,2.3816,2.3782,2.3725,2.3759,2.3718,2.372,2.3769,2.3805,2.3814,2.3822,2.3931,2.3953,2.3971,0,0,0,0,0,0,2.3991,2.3931,2.3891,2.3943,2.3926,2.3877,2.391,2.3861,2.3858,2.3848,2.3778,2.377,2.3817,2.3797,2.3753,2.3843,2.3773,2.3782,2.3855,2.3875,2.3892,2.3896,2.3656,0,0,0,0,0,2.4023,2.4037,2.3983,2.4034,2.4027,2.3971,2.3974,2.3932,2.3911,2.3903,2.3871,2.3854,2.3861,2.3867,2.387,2.3935,2.3925,2.397,2.3987,2.4001,2.401,2.4044,2.4063,2.3854,2.3854,2.3854,0,0,2.409,2.4058,2.4071,2.4057,2.4039,2.4055,2.3965,2.3986,2.3998,2.3907,2.394,2.3916,2.3893,2.3945,2.3966,2.3929,2.4065,2.4012,2.4023,2.4024,2.4055,2.4074,2.4092,2.386,2.3859,2.3858,0,0,2.4219,2.4196,2.4236,2.422,2.4193,2.4155,2.4165,2.4124,2.4104,2.4136,2.4068,2.4082,2.4095,2.4081,2.4076,2.4203,2.4151,2.4206,2.4293,2.4327,2.4344,2.4358,2.4404,2.4421,2.4215,2.4215,2.4215,0,2.4305,2.4326,2.4263,2.4289,2.4286,2.4203,2.4244,2.4232,2.4208,2.4208,2.4167,2.4182,2.4161,2.4209,2.424,2.4238,2.4248,2.421,2.4346,2.436,2.4372,2.4416,2.4433,2.4222,2.4221,2.4221,2.422,0,2.4433,2.445,2.4486,2.4464,2.4465,2.4498,2.4442,2.4451,2.4409,2.4377,2.4412,2.4383,2.4379,2.4388,2.4347,2.4431,2.4409,2.4358,2.4286,2.44,2.444,2.4456,2.4232,2.423,2.4228,2.4226,0,0,2.4634,2.4579,2.4593,2.4583,2.4548,2.456,2.4591,2.4587,2.4596,2.4583,2.4608,2.4621,2.4575,2.4569,2.4527,2.4557,2.466,2.4502,2.45,2.4533,2.4752,2.4791,2.4811,2.4626,2.4628,2.4631,2.4754,0,2.4755,2.4803,2.4749,2.4809,2.4824,2.4747,2.4774,2.4756,2.4727,2.4736,2.4704,2.4715,2.4652,2.4649,2.4675,2.4642,2.4703,2.4632,2.4649,2.4651,2.4658,2.4831,2.4872,2.499,2.4769,2.4772,2.4774,0,2.4903,2.4897,2.4958,2.4921,2.4925,2.495,2.4943,2.4953,2.4932,2.4909,2.4904,2.4853,2.4882,2.4812,2.4851,2.4805,2.4808,2.4794,2.4797,2.4796,2.4719,2.4836,2.5026,2.5044,2.4797,2.4795,2.4794,0,2.5044,2.5051,2.5089,2.5083,2.504,2.506,2.5043,2.5019,2.5021,2.5015,2.5016,2.5014,2.5013,2.5014,2.4965,2.4918,2.5011,2.4937,2.4994,2.4995,2.5017,2.5016,2.521,2.5019,2.5019,2.5019,2.5018,0,2.5185,2.5226,2.5152,2.5176,2.522,2.5158,2.5204,2.5179,2.5159,2.5177,2.5111,2.513,2.5063,2.5076,2.5038,2.5077,2.5077,2.506,2.505,2.5066,2.5069,2.5068,2.5059,2.5023,2.5022,2.5021,2.502,0,2.535,2.5302,2.5339,2.5296,2.5286,2.5321,2.5284,2.5305,2.5272,2.5296,2.5298,2.5247,2.5258,2.5209,2.5212,2.5187,2.5246,2.5222,2.5253,2.5246,2.5306,2.5302,2.5507,2.5531,2.5325,2.5327,2.5328,0,2.5443,2.5473,2.5434,2.5441,2.5428,2.544,2.5442,2.5383,2.5388,2.5367,2.5391,2.5397,2.5398,2.5421,2.5384,2.5387,2.5362,2.5434,2.5362,2.5379,2.5364,2.5363,2.5367,2.5449,2.5452,2.5454,2.5456,0,2.5614,2.5589,2.5594,2.5591,2.5595,2.559,2.558,2.559,2.5527,2.5536,2.5546,2.5548,2.5551,2.5559,2.5554,2.5538,2.5487,2.5479,2.5492,2.551,2.5527,2.5519,2.5295,2.5474,2.5472,2.5471,2.547,2.5469,2.5746,2.577,2.5746,2.5754,2.574,2.5734,2.5751,2.5721,2.5729,2.5726,2.5692,2.571,2.569,2.5678,2.5668,2.5682,2.5648,2.5667,2.5672,2.5678,2.5689,2.5525,2.5681,2.568,2.568,2.5679,2.5679,0,2.5914,2.5895,2.5903,2.5892,2.5899,2.585,2.5838,2.5847,2.5864,2.5849,2.5852,2.5866,2.5873,2.5838,2.5841,2.5859,2.5836,2.5862,2.586,2.5858,2.5719,2.5707,2.5881,2.5881,2.5881,2.5881,2.5881,2.5881,2.6002,2.6039,2.6013,2.6044,2.6025,2.6041,2.6039,2.6033,2.6021,2.6039,2.6045,2.6022,2.6,2.6001,2.6006,2.5995,2.6,2.6034,2.6016,2.5887,2.5867,2.5848,2.5837,2.6035,2.6036,2.6154,2.6155,2.6156]}]]